Weather History for West Palm Beach, FL

Change the Weather History Date:

Wednesday, September 18, 2013

  Actual Average Record
Temperature  
Mean Temperature 80 °F 82 °F  
Max Temperature 86 °F 88 °F 95 °F (1951)
Min Temperature 73 °F 75 °F 66 °F (1920)
Degree Days  
Heating Degree Days 0 0  
Month to date heating degree days 0 0  
Since 1 July heating degree days 0 0  
Cooling Degree Days 15 17  
Month to date cooling degree days 306 306  
Year to date cooling degree days 3177 3012  
Growing Degree Days 30 (Base 50)    
Moisture  
Dew Point 73 °F    
Average Humidity 80    
Maximum Humidity 90    
Minimum Humidity 70    
Precipitation  
Precipitation 2.65 in 0.30 in 4.35 in (1926)
Month to date precipitation 6.93 5.13  
Year to date precipitation 54.55 45.85  
Snow  
Snow 0.00 in - - ()
Month to date snowfall 0.0  
Since 1 July snowfall 0.0  
Since 1 September snowfall 0.0  
Snow Depth 0.00 in    
Sea Level Pressure  
Sea Level Pressure 29.98 in    
Wind  
Wind Speed 6 mph (ESE)    
Max Wind Speed 17 mph    
Max Gust Speed 22 mph    
Visibility 8 miles    
Events Fog , Rain , Thunderstorm    
T = Trace of Precipitation, MM = Missing Value Source: NWS Daily Summary

Daily Weather History Graph

Daily Weather History Graph

Search for Another Location

Airport:

Trip Planner

Search our weather history database for the weather conditions in past years. The results will help you decide how hot, cold, wet, or windy it might be!

Date:

Astronomy

Sep. 18, 2013 Rise Set
Actual Time 7:07 AM EDT 7:21 PM EDT
Civil Twilight 6:44 AM EDT 7:44 PM EDT
Nautical Twilight 6:17 AM EDT 8:11 PM EDT
Astronomical Twilight 5:49 AM EDT 8:38 PM EDT
Moon 6:44 PM EDT (9/18) 6:09 AM EDT (9/18)
Length of Visible Light 13h 00m
Length of Day
12h 13m
Waxing Gibbous, 99% of the Moon is Illuminated
Sep 18
Waxing Gibbous
Sep 19
Full
Sep 26
Last Quarter
Oct 4
New
Oct 11
First Quarter

Hourly Weather History & Observations

Time (EDT) Temp. Heat Index Dew Point Humidity Pressure Visibility Wind Dir Wind Speed Gust Speed Precip Events Conditions
12:53 AM 80.8 °F 85.2 °F 72.5 °F 76% 29.96 in 10.0 mi East 9.2 mph - N/A   Mostly Cloudy
1:53 AM 78.1 °F - 71.1 °F 79% 29.95 in 10.0 mi East 11.5 mph - N/A   Mostly Cloudy
2:53 AM 76.5 °F - 70.7 °F 82% 29.94 in 10.0 mi ESE 3.5 mph - 0.00 in Rain Light Rain
3:53 AM 76.8 °F - 72.7 °F 87% 29.93 in 10.0 mi NE 3.5 mph - 0.00 in   Mostly Cloudy
4:53 AM 77.7 °F - 73.6 °F 87% 29.92 in 10.0 mi Calm Calm - N/A   Mostly Cloudy
5:53 AM 76.5 °F - 72.7 °F 88% 29.93 in 10.0 mi NNW 4.6 mph - N/A   Mostly Cloudy
6:53 AM 78.6 °F - 74.7 °F 88% 29.96 in 10.0 mi NNW 4.6 mph - 0.00 in Rain Light Rain
7:15 AM 77.0 °F - 73.4 °F 89% 29.95 in 10.0 mi SW 5.8 mph - 0.01 in Rain Light Rain
7:35 AM 77.0 °F - 71.6 °F 83% 29.97 in 0.2 mi South 17.3 mph 21.9 mph 0.10 in Rain , Thunderstorm Heavy Thunderstorms and Rain
7:42 AM 75.2 °F - 71.6 °F 89% 29.98 in 0.5 mi SSE 8.1 mph 21.9 mph 0.37 in Rain , Thunderstorm Heavy Thunderstorms and Rain
7:53 AM 75.7 °F - 74.7 °F 96% 29.98 in 0.8 mi WSW 4.6 mph - 0.57 in Rain , Thunderstorm Heavy Thunderstorms and Rain
8:05 AM 75.2 °F - 73.4 °F 94% 29.97 in 3.0 mi South 8.1 mph - 0.23 in Rain , Thunderstorm Thunderstorms and Rain
8:51 AM 75.2 °F - 71.6 °F 89% 29.99 in 10.0 mi Calm Calm - 0.32 in Rain , Thunderstorm Light Thunderstorms and Rain
8:53 AM 75.2 °F - 71.1 °F 87% 29.99 in 10.0 mi SE 3.5 mph - 0.32 in Rain , Thunderstorm Light Thunderstorms and Rain
9:16 AM 77.0 °F - 71.6 °F 83% 29.99 in 10.0 mi SSE 8.1 mph - 0.01 in Rain Light Rain
9:38 AM 77.0 °F - 71.6 °F 83% 30.02 in 1.5 mi East 17.3 mph 20.7 mph 0.09 in Rain , Thunderstorm Heavy Thunderstorms and Rain
9:43 AM 77.0 °F - 71.6 °F 83% 30.02 in 0.2 mi East 15.0 mph - 0.30 in Fog , Rain , Thunderstorm Heavy Thunderstorms and Rain
9:53 AM 76.5 °F - 71.8 °F 85% 30.02 in 0.2 mi East 12.7 mph - 0.99 in Fog , Rain , Thunderstorm Heavy Thunderstorms and Rain
9:57 AM 75.2 °F - 69.8 °F 83% 30.02 in 0.2 mi ESE 6.9 mph - 0.26 in Fog , Rain , Thunderstorm Heavy Thunderstorms and Rain
10:14 AM 75.2 °F - 69.8 °F 83% 30.01 in 3.0 mi South 3.5 mph - 0.60 in Rain , Thunderstorm Heavy Thunderstorms and Rain
10:32 AM 75.2 °F - 71.6 °F 89% 30.01 in 10.0 mi SE 4.6 mph - 0.64 in Rain Light Rain
10:53 AM 75.6 °F - 71.6 °F 87% 30.01 in 10.0 mi SE 10.4 mph - 0.65 in Rain Light Rain
11:53 AM 77.0 °F - 71.4 °F 83% 29.99 in 10.0 mi SE 6.9 mph - 0.02 in Rain Light Rain
12:53 PM 83.8 °F 92.1 °F 75.7 °F 76% 29.99 in 10.0 mi ENE 6.9 mph - N/A   Mostly Cloudy
1:46 PM 82.4 °F 88.2 °F 73.4 °F 74% 29.98 in 10.0 mi East 8.1 mph - 0.00 in   Mostly Cloudy
1:53 PM 84.9 °F 95.3 °F 77.0 °F 77% 29.98 in 10.0 mi East 12.7 mph - 0.00 in   Mostly Cloudy
2:53 PM 84.9 °F 93.3 °F 74.8 °F 72% 29.96 in 10.0 mi East 12.7 mph - N/A   Mostly Cloudy
3:53 PM 84.0 °F 90.5 °F 73.4 °F 70% 29.95 in 10.0 mi East 8.1 mph - N/A   Mostly Cloudy
4:53 PM 82.0 °F 87.9 °F 73.8 °F 76% 29.95 in 10.0 mi East 5.8 mph - 0.00 in   Mostly Cloudy
5:53 PM 82.9 °F 89.4 °F 73.9 °F 74% 29.95 in 10.0 mi ENE 8.1 mph - N/A   Mostly Cloudy
6:53 PM 82.9 °F 88.5 °F 72.5 °F 71% 29.96 in 10.0 mi ENE 4.6 mph - N/A   Mostly Cloudy
7:53 PM 81.0 °F 85.6 °F 72.7 °F 76% 29.97 in 10.0 mi North 4.6 mph - N/A   Mostly Cloudy
8:53 PM 78.1 °F - 74.1 °F 88% 30.00 in 10.0 mi South 5.8 mph - 0.01 in   Mostly Cloudy
9:53 PM 75.9 °F - 72.7 °F 90% 30.01 in 10.0 mi SW 3.5 mph - 0.09 in   Mostly Cloudy
10:53 PM 76.3 °F - 72.3 °F 87% 30.01 in 10.0 mi Calm Calm - N/A   Scattered Clouds
11:53 PM 75.9 °F - 72.1 °F 88% 30.00 in 10.0 mi WNW 4.6 mph - N/A   Scattered Clouds